| time (UTC) | temp F | wind direction | speed MPH | gust MPH | rain 1hr in | rain 24hr in | rain mn in | humidity % | barometer mb |
| 20260503025215 | 68 | 262 | 5.0 | 11.0 | 0.00 | 0.00 | 0.00 | 99 | 914.4 |
| 20260503024717 | 68 | 295 | 1.0 | 8.0 | 0.00 | 0.00 | 0.00 | 99 | 914.4 |
| 20260503024715 | 68 | 247 | 1.0 | 8.0 | 0.00 | 0.00 | 0.00 | 99 | 914.4 |
| 20260503024215 | 67 | 232 | 0.0 | 2.0 | 0.00 | 0.00 | 0.00 | 99 | 914.4 |
| 20260503024116 | 68 | 287 | 4.0 | 11.0 | 0.00 | 0.00 | 0.00 | 99 | 914.3 |
| 20260503023715 | 67 | 277 | 1.0 | 7.0 | 0.00 | 0.00 | 0.00 | 99 | 914.5 |
| 20260503023516 | 68 | 273 | 2.0 | 8.0 | 0.00 | 0.00 | 0.00 | 99 | 914.5 |
| 20260503015916 | 68 | 285 | 2.0 | 6.0 | 0.00 | 0.00 | 0.00 | 99 | 914.8 |
| 20260503015715 | 67 | 278 | 0.0 | 1.0 | 0.00 | 0.00 | 0.00 | 99 | 914.8 |
| 20260503015316 | 67 | 278 | 0.0 | 2.0 | 0.00 | 0.00 | 0.00 | 99 | 914.8 |
| 20260503015214 | 67 | 310 | 0.0 | 5.0 | 0.00 | 0.00 | 0.00 | 99 | 914.8 |
| 20260503014215 | 67 | 285 | 0.0 | 7.0 | 0.00 | 0.00 | 0.00 | 99 | 914.7 |
| 20260503014116 | 67 | 268 | 0.0 | 4.0 | 0.00 | 0.00 | 0.00 | 99 | 914.8 |
| 20260503012316 | 68 | 248 | 5.0 | 7.0 | 0.00 | 0.00 | 0.00 | 98 | 914.3 |
| 20260503012214 | 67 | 247 | 2.0 | 7.0 | 0.00 | 0.00 | 0.00 | 98 | 914.3 |
| 20260503011716 | 67 | 222 | 5.0 | 10.0 | 0.00 | 0.00 | 0.00 | 98 | 914.2 |
| 20260503011714 | 67 | 207 | 5.0 | 10.0 | 0.00 | 0.00 | 0.00 | 98 | 914.1 |
| 20260503011215 | 67 | 261 | 2.0 | 5.0 | 0.00 | 0.00 | 0.00 | 98 | 914.1 |
| 20260503011116 | 67 | 272 | 0.0 | 0.0 | 0.00 | 0.00 | 0.00 | 99 | 914.1 |
| 20260503010214 | 67 | 236 | 6.0 | 10.0 | 0.00 | 0.00 | 0.00 | 98 | 914.0 |
| 20260503005715 | 67 | 263 | 2.0 | 11.0 | 0.00 | 0.00 | 0.00 | 98 | 913.9 |
| 20260503005315 | 67 | 254 | 5.0 | 8.0 | 0.00 | 0.00 | 0.00 | 98 | 913.9 |
| 20260503005214 | 67 | 258 | 3.0 | 8.0 | 0.00 | 0.00 | 0.00 | 98 | 913.9 |
| 20260503004716 | 67 | 227 | 6.0 | 15.0 | 0.00 | 0.00 | 0.00 | 98 | 913.7 |
| 20260503004214 | 67 | 279 | 8.0 | 14.0 | 0.00 | 0.00 | 0.00 | 98 | 913.6 |
| 20260503004115 | 67 | 210 | 9.0 | 14.0 | 0.00 | 0.00 | 0.00 | 98 | 913.7 |
| 20260503003714 | 67 | 276 | 9.0 | 14.0 | 0.00 | 0.00 | 0.00 | 98 | 913.6 |
| 20260503003515 | 67 | 253 | 7.0 | 11.0 | 0.00 | 0.00 | 0.00 | 98 | 913.7 |
| 20260503003214 | 67 | 309 | 6.0 | 12.0 | 0.00 | 0.00 | 0.00 | 98 | 913.6 |
| 20260503002915 | 67 | 263 | 8.0 | 12.0 | 0.00 | 0.00 | 0.00 | 98 | 913.6 |
| 20260503002714 | 66 | 256 | 8.0 | 12.0 | 0.00 | 0.00 | 0.00 | 98 | 913.4 |
| 20260503002315 | 67 | 290 | 8.0 | 14.0 | 0.00 | 0.00 | 0.00 | 98 | 913.5 |
| 20260503002214 | 66 | 213 | 8.0 | 14.0 | 0.00 | 0.00 | 0.00 | 98 | 913.5 |
| 20260503001715 | 67 | 266 | 9.0 | 14.0 | 0.00 | 0.00 | 0.00 | 98 | 913.5 |
| 20260503001214 | 67 | 258 | 7.0 | 12.0 | 0.00 | 0.00 | 0.00 | 98 | 913.5 |
| 20260503001115 | 67 | 235 | 7.0 | 12.0 | 0.00 | 0.00 | 0.00 | 98 | 913.4 |
| 20260503000714 | 67 | 256 | 6.0 | 11.0 | 0.00 | 0.00 | 0.00 | 98 | 913.4 |
| 20260503000515 | 67 | 239 | 7.0 | 11.0 | 0.00 | 0.00 | 0.00 | 98 | 913.4 |
| 20260503000214 | 66 | 273 | 0.0 | 9.0 | 0.00 | 0.00 | 0.00 | 98 | 913.3 |
| 20260502235915 | 66 | 236 | 8.0 | 12.0 | 0.00 | 0.00 | 0.00 | 98 | 913.3 |
| 20260502235714 | 66 | 231 | 7.0 | 13.0 | 0.00 | 0.00 | 0.00 | 98 | 913.3 |
| 20260502235315 | 66 | 219 | 8.0 | 13.0 | 0.00 | 0.00 | 0.00 | 98 | 913.2 |
| 20260502235214 | 66 | 206 | 8.0 | 14.0 | 0.00 | 0.00 | 0.00 | 98 | 913.2 |
| 20260502234715 | 66 | 254 | 9.0 | 15.0 | 0.00 | 0.00 | 0.00 | 98 | 913.1 |
| 20260502234214 | 66 | 278 | 9.0 | 15.0 | 0.00 | 0.00 | 0.00 | 98 | 913.1 |
| 20260502234115 | 66 | 224 | 10.0 | 15.0 | 0.00 | 0.00 | 0.00 | 98 | 913.1 |
| 20260502233713 | 66 | 237 | 11.0 | 15.0 | 0.00 | 0.00 | 0.00 | 98 | 913.1 |
| 20260502233515 | 66 | 251 | 10.0 | 15.0 | 0.00 | 0.00 | 0.00 | 98 | 912.9 |
| 20260502233213 | 66 | 231 | 0.0 | 12.0 | 0.00 | 0.00 | 0.00 | 98 | 913.1 |
| 20260502232915 | 66 | 240 | 11.0 | 17.0 | 0.00 | 0.00 | 0.00 | 98 | 913.0 |
| 20260502232714 | 66 | 250 | 9.0 | 16.0 | 0.00 | 0.00 | 0.00 | 98 | 913.1 |
| 20260502232315 | 66 | 269 | 10.0 | 16.0 | 0.00 | 0.00 | 0.00 | 98 | 913.1 |
| 20260502232213 | 66 | 250 | 9.0 | 16.0 | 0.00 | 0.00 | 0.00 | 98 | 912.9 |
| 20260502231715 | 66 | 247 | 9.0 | 14.0 | 0.00 | 0.00 | 0.00 | 98 | 913.1 |
| 20260502231713 | 66 | 262 | 9.0 | 14.0 | 0.00 | 0.00 | 0.00 | 98 | 913.1 |
| 20260502231213 | 66 | 290 | 9.0 | 15.0 | 0.00 | 0.00 | 0.00 | 98 | 913.0 |
| 20260502231115 | 66 | 251 | 9.0 | 15.0 | 0.00 | 0.00 | 0.00 | 98 | 913.0 |
| 20260502230713 | 66 | 264 | 9.0 | 15.0 | 0.00 | 0.00 | 0.00 | 98 | 913.1 |
| 20260502230514 | 66 | 236 | 9.0 | 12.0 | 0.00 | 0.00 | 0.00 | 98 | 913.0 |
| 20260502230213 | 66 | 205 | 8.0 | 12.0 | 0.00 | 0.00 | 0.00 | 98 | 913.1 |
| 20260502225916 | 66 | 247 | 8.0 | 14.0 | 0.00 | 0.00 | 0.00 | 98 | 913.0 |
| 20260502225713 | 66 | 223 | 8.0 | 14.0 | 0.00 | 0.00 | 0.00 | 98 | 913.0 |
| 20260502225314 | 66 | 227 | 10.0 | 14.0 | 0.00 | 0.00 | 0.00 | 98 | 912.9 |
| 20260502224715 | 66 | 229 | 5.0 | 13.0 | 0.00 | 0.00 | 0.00 | 98 | 912.8 |
| 20260502224713 | 66 | 235 | 5.0 | 13.0 | 0.00 | 0.00 | 0.00 | 98 | 912.8 |
| 20260502224213 | 66 | 222 | 9.0 | 15.0 | 0.00 | 0.00 | 0.00 | 98 | 912.9 |
| 20260502224114 | 66 | 255 | 8.0 | 15.0 | 0.00 | 0.00 | 0.00 | 98 | 912.8 |
| 20260502223713 | 66 | 207 | 9.0 | 15.0 | 0.00 | 0.00 | 0.00 | 98 | 912.8 |
| 20260502223514 | 66 | 255 | 7.0 | 13.0 | 0.00 | 0.00 | 0.00 | 98 | 912.6 |
| 20260502223213 | 66 | 232 | 8.0 | 13.0 | 0.00 | 0.00 | 0.00 | 98 | 912.8 |
| 20260502222914 | 65 | 245 | 8.0 | 13.0 | 0.00 | 0.00 | 0.00 | 98 | 912.8 |
| 20260502222713 | 65 | 284 | 9.0 | 13.0 | 0.00 | 0.00 | 0.00 | 98 | 912.8 |
| 20260502222314 | 66 | 255 | 7.0 | 11.0 | 0.00 | 0.00 | 0.00 | 98 | 912.7 |
| 20260502221715 | 65 | 228 | 8.0 | 12.0 | 0.00 | 0.00 | 0.00 | 98 | 912.7 |
| 20260502221114 | 65 | 221 | 6.0 | 13.0 | 0.00 | 0.00 | 0.00 | 98 | 912.6 |
| 20260502220713 | 65 | 258 | 8.0 | 13.0 | 0.00 | 0.00 | 0.00 | 98 | 912.5 |
| 20260502220514 | 65 | 230 | 7.0 | 13.0 | 0.00 | 0.00 | 0.00 | 98 | 912.6 |
| 20260502220213 | 65 | 267 | 7.0 | 12.0 | 0.00 | 0.00 | 0.00 | 98 | 912.5 |
| 20260502215914 | 65 | 273 | 8.0 | 12.0 | 0.00 | 0.00 | 0.00 | 98 | 912.5 |
| 20260502215713 | 65 | 201 | 8.0 | 17.0 | 0.00 | 0.00 | 0.00 | 98 | 912.6 |
| 20260502215314 | 65 | 246 | 8.0 | 17.0 | 0.00 | 0.00 | 0.00 | 98 | 912.7 |
| 20260502215213 | 65 | 222 | 8.0 | 17.0 | 0.00 | 0.00 | 0.00 | 98 | 912.7 |
| 20260502214714 | 65 | 257 | 8.0 | 14.0 | 0.00 | 0.00 | 0.00 | 98 | 912.6 |
| 20260502214213 | 65 | 242 | 8.0 | 13.0 | 0.00 | 0.00 | 0.00 | 98 | 912.7 |
| 20260502214114 | 65 | 274 | 7.0 | 13.0 | 0.00 | 0.00 | 0.00 | 98 | 912.7 |
| 20260502213712 | 65 | 263 | 8.0 | 14.0 | 0.00 | 0.00 | 0.00 | 98 | 912.7 |
| 20260502213514 | 65 | 255 | 9.0 | 14.0 | 0.00 | 0.00 | 0.00 | 98 | 912.7 |
| 20260502213213 | 65 | 239 | 8.0 | 14.0 | 0.00 | 0.00 | 0.00 | 98 | 912.7 |
| 20260502212914 | 65 | 234 | 9.0 | 14.0 | 0.00 | 0.00 | 0.00 | 98 | 912.7 |
| 20260502212314 | 65 | 218 | 8.0 | 11.0 | 0.00 | 0.00 | 0.00 | 98 | 912.7 |
| 20260502212212 | 65 | 266 | 7.0 | 11.0 | 0.00 | 0.00 | 0.00 | 98 | 912.7 |
| 20260502211714 | 65 | 260 | 8.0 | 11.0 | 0.00 | 0.00 | 0.00 | 98 | 912.8 |
| 20260502211712 | 65 | 221 | 8.0 | 11.0 | 0.00 | 0.00 | 0.00 | 98 | 912.8 |
| 20260502211212 | 65 | 253 | 7.0 | 10.0 | 0.00 | 0.00 | 0.00 | 98 | 912.7 |
| 20260502211114 | 65 | 274 | 7.0 | 10.0 | 0.00 | 0.00 | 0.00 | 98 | 912.7 |
| 20260502210712 | 65 | 251 | 7.0 | 12.0 | 0.00 | 0.00 | 0.00 | 98 | 912.6 |
| 20260502210514 | 65 | 276 | 7.0 | 12.0 | 0.00 | 0.00 | 0.00 | 98 | 912.5 |
| 20260502210212 | 65 | 183 | 7.0 | 12.0 | 0.00 | 0.00 | 0.00 | 98 | 912.5 |
| 20260502205914 | 65 | 247 | 7.0 | 10.0 | 0.00 | 0.00 | 0.00 | 98 | 912.4 |
| 20260502205712 | 65 | 219 | 3.0 | 9.0 | 0.00 | 0.00 | 0.00 | 98 | 912.4 |
| 20260502205313 | 65 | 248 | 7.0 | 12.0 | 0.00 | 0.00 | 0.00 | 98 | 912.4 |
| 20260502205212 | 65 | 257 | 7.0 | 12.0 | 0.00 | 0.00 | 0.00 | 98 | 912.4 |
| 20260502204715 | 65 | 279 | 8.0 | 12.0 | 0.00 | 0.00 | 0.00 | 98 | 912.6 |
| 20260502204212 | 65 | 200 | 1.0 | 12.0 | 0.00 | 0.00 | 0.00 | 98 | 912.5 |
| 20260502204113 | 65 | 233 | 8.0 | 12.0 | 0.00 | 0.00 | 0.00 | 98 | 912.4 |
| 20260502203712 | 65 | 227 | 8.0 | 15.0 | 0.00 | 0.00 | 0.00 | 98 | 912.4 |
| 20260502203513 | 65 | 189 | 6.0 | 15.0 | 0.00 | 0.00 | 0.00 | 98 | 912.4 |
| 20260502203212 | 65 | 237 | 10.0 | 15.0 | 0.00 | 0.00 | 0.00 | 98 | 912.3 |
| 20260502202913 | 65 | 216 | 9.0 | 14.0 | 0.00 | 0.00 | 0.00 | 98 | 912.2 |
| 20260502202712 | 65 | 269 | 3.0 | 13.0 | 0.00 | 0.00 | 0.00 | 98 | 912.2 |
| 20260502202313 | 64 | 243 | 8.0 | 15.0 | 0.00 | 0.00 | 0.00 | 98 | 912.2 |
| 20260502202212 | 64 | 264 | 10.0 | 15.0 | 0.00 | 0.00 | 0.00 | 98 | 912.2 |
| 20260502201714 | 65 | 234 | 9.0 | 16.0 | 0.00 | 0.00 | 0.00 | 98 | 912.1 |
| 20260502201712 | 65 | 220 | 9.0 | 16.0 | 0.00 | 0.00 | 0.00 | 98 | 912.1 |
| 20260502201212 | 65 | 203 | 10.0 | 16.0 | 0.00 | 0.00 | 0.00 | 98 | 911.9 |
| 20260502201114 | 65 | 235 | 10.0 | 16.0 | 0.00 | 0.00 | 0.00 | 98 | 911.9 |
| 20260502200712 | 65 | 235 | 8.0 | 14.0 | 0.00 | 0.00 | 0.00 | 98 | 912.0 |
| 20260502200513 | 65 | 247 | 8.0 | 14.0 | 0.00 | 0.00 | 0.00 | 98 | 911.9 |
| 20260502200212 | 65 | 255 | 8.0 | 14.0 | 0.00 | 0.00 | 0.00 | 98 | 912.0 |
| 20260502195913 | 65 | 275 | 9.0 | 14.0 | 0.00 | 0.00 | 0.00 | 98 | 912.0 |
| 20260502195712 | 65 | 232 | 1.0 | 11.0 | 0.00 | 0.00 | 0.00 | 98 | 911.9 |
| 20260502195313 | 65 | 260 | 9.0 | 13.0 | 0.00 | 0.00 | 0.00 | 98 | 912.0 |
| 20260502195212 | 65 | 251 | 9.0 | 13.0 | 0.00 | 0.00 | 0.00 | 98 | 912.0 |
| 20260502194713 | 66 | 206 | 9.0 | 14.0 | 0.00 | 0.00 | 0.00 | 98 | 911.9 |
| 20260502194212 | 66 | 252 | 9.0 | 14.0 | 0.00 | 0.00 | 0.00 | 98 | 912.0 |
| 20260502193712 | 66 | 225 | 10.0 | 15.0 | 0.00 | 0.00 | 0.00 | 98 | 911.9 |
| 20260502193513 | 66 | 211 | 8.0 | 15.0 | 0.00 | 0.00 | 0.00 | 98 | 911.8 |
| 20260502193212 | 65 | 200 | 11.0 | 15.0 | 0.00 | 0.00 | 0.00 | 98 | 911.9 |
| 20260502192913 | 65 | 199 | 8.0 | 13.0 | 0.00 | 0.00 | 0.00 | 98 | 911.8 |
| 20260502192714 | 65 | 200 | 8.0 | 14.0 | 0.00 | 0.00 | 0.00 | 98 | 911.8 |
| 20260502192313 | 65 | 200 | 8.0 | 15.0 | 0.00 | 0.00 | 0.00 | 98 | 911.9 |
| 20260502192211 | 65 | 236 | 9.0 | 15.0 | 0.00 | 0.00 | 0.00 | 98 | 911.9 |
| 20260502191713 | 65 | 218 | 9.0 | 15.0 | 0.00 | 0.00 | 0.00 | 98 | 911.8 |
| 20260502191711 | 65 | 218 | 9.0 | 15.0 | 0.00 | 0.00 | 0.00 | 98 | 911.9 |
| 20260502191211 | 65 | 219 | 10.0 | 16.0 | 0.00 | 0.00 | 0.00 | 98 | 912.0 |
| 20260502191113 | 65 | 205 | 8.0 | 16.0 | 0.00 | 0.00 | 0.00 | 98 | 911.9 |
| 20260502190711 | 65 | 263 | 11.0 | 16.0 | 0.00 | 0.00 | 0.00 | 98 | 911.8 |
| 20260502190513 | 65 | 213 | 10.0 | 16.0 | 0.00 | 0.00 | 0.00 | 98 | 911.8 |
| 20260502185913 | 65 | 225 | 12.0 | 16.0 | 0.00 | 0.00 | 0.00 | 98 | 911.7 |
| 20260502185313 | 65 | 218 | 10.0 | 15.0 | 0.00 | 0.00 | 0.00 | 98 | 911.8 |
| 20260502185211 | 65 | 214 | 10.0 | 15.0 | 0.00 | 0.00 | 0.00 | 98 | 911.9 |
| 20260502184713 | 65 | 165 | 7.0 | 14.0 | 0.00 | 0.00 | 0.00 | 98 | 912.0 |
| 20260502184711 | 65 | 208 | 7.0 | 14.0 | 0.00 | 0.00 | 0.00 | 98 | 912.1 |
| 20260502184211 | 65 | 177 | 8.0 | 14.0 | 0.00 | 0.00 | 0.00 | 98 | 912.1 |
| 20260502184115 | 65 | 209 | 7.0 | 14.0 | 0.00 | 0.00 | 0.00 | 98 | 912.1 |
| 20260502183711 | 65 | 213 | 9.0 | 14.0 | 0.00 | 0.00 | 0.00 | 98 | 912.2 |
| 20260502183512 | 65 | 237 | 8.0 | 11.0 | 0.00 | 0.00 | 0.00 | 98 | 912.2 |
| 20260502183211 | 65 | 270 | 6.0 | 10.0 | 0.00 | 0.00 | 0.00 | 98 | 912.2 |
| 20260502182912 | 65 | 197 | 7.0 | 10.0 | 0.00 | 0.00 | 0.00 | 99 | 912.2 |
| 20260502182711 | 65 | 222 | 4.0 | 10.0 | 0.00 | 0.00 | 0.00 | 99 | 912.2 |
| 20260502170512 | 65 | 225 | 6.0 | 8.0 | 0.00 | 0.00 | 0.00 | 98 | 912.8 |
| 20260502170210 | 65 | 226 | 2.0 | 9.0 | 0.00 | 0.00 | 0.00 | 98 | 912.8 |
| 20260502164210 | 65 | 218 | 6.0 | 8.0 | 0.00 | 0.00 | 0.00 | 98 | 913.2 |
| 20260502164111 | 65 | 235 | 4.0 | 7.0 | 0.00 | 0.00 | 0.00 | 98 | 913.1 |
| 20260502163710 | 65 | 224 | 2.0 | 7.0 | 0.00 | 0.00 | 0.00 | 98 | 913.2 |
| 20260502163511 | 65 | 249 | 5.0 | 8.0 | 0.00 | 0.00 | 0.00 | 98 | 913.3 |
| 20260502163210 | 65 | 233 | 5.0 | 9.0 | 0.00 | 0.00 | 0.00 | 98 | 913.3 |
| 20260502162911 | 65 | 188 | 5.0 | 9.0 | 0.00 | 0.00 | 0.00 | 98 | 913.2 |
| 20260502162710 | 65 | 220 | 4.0 | 8.0 | 0.00 | 0.00 | 0.00 | 98 | 913.3 |
| 20260502162311 | 65 | 213 | 6.0 | 8.0 | 0.00 | 0.00 | 0.00 | 99 | 913.3 |
| 20260502162211 | 65 | 220 | 3.0 | 8.0 | 0.00 | 0.00 | 0.00 | 99 | 913.3 |
| 20260502152311 | 65 | 211 | 5.0 | 8.0 | 0.00 | 0.00 | 0.00 | 98 | 913.9 |
| 20260502152210 | 65 | 251 | 5.0 | 8.0 | 0.00 | 0.00 | 0.00 | 98 | 913.9 |
| 20260502151711 | 65 | 264 | 1.0 | 7.0 | 0.00 | 0.00 | 0.00 | 98 | 914.0 |
| 20260502151709 | 65 | 249 | 1.0 | 7.0 | 0.00 | 0.00 | 0.00 | 98 | 914.0 |
| 20260502151210 | 65 | 272 | 0.0 | 6.0 | 0.00 | 0.00 | 0.00 | 98 | 914.0 |
| 20260502151111 | 65 | 195 | 0.0 | 2.0 | 0.00 | 0.00 | 0.00 | 98 | 914.0 |
| 20260502150709 | 65 | 266 | 2.0 | 7.0 | 0.00 | 0.00 | 0.00 | 98 | 913.9 |
| 20260502150511 | 65 | 256 | 1.0 | 5.0 | 0.00 | 0.00 | 0.00 | 98 | 913.9 |
| 20260502150209 | 65 | 214 | 0.0 | 4.0 | 0.00 | 0.00 | 0.00 | 98 | 913.9 |
| 20260502130709 | 65 | 187 | 1.0 | 8.0 | 0.00 | 0.00 | 0.00 | 98 | 913.0 |
| 20260502130510 | 65 | 203 | 1.0 | 8.0 | 0.00 | 0.00 | 0.00 | 98 | 913.0 |
| 20260502123708 | 65 | 215 | 6.0 | 11.0 | 0.00 | 0.00 | 0.00 | 98 | 912.6 |
| 20260502123510 | 65 | 237 | 6.0 | 11.0 | 0.00 | 0.00 | 0.00 | 98 | 912.6 |
| 20260502123208 | 65 | 122 | 0.0 | 7.0 | 0.00 | 0.00 | 0.00 | 98 | 912.6 |
| 20260502122910 | 65 | 206 | 1.0 | 8.0 | 0.00 | 0.00 | 0.00 | 98 | 912.6 |
| 20260502122708 | 65 | 206 | 5.0 | 10.0 | 0.00 | 0.00 | 0.00 | 98 | 912.5 |
| 20260502122309 | 65 | 166 | 1.0 | 7.0 | 0.00 | 0.00 | 0.00 | 98 | 912.5 |
| 20260502122208 | 65 | 129 | 5.0 | 12.0 | 0.00 | 0.00 | 0.00 | 98 | 912.4 |
| 20260502121710 | 65 | 219 | 6.0 | 13.0 | 0.00 | 0.00 | 0.00 | 98 | 912.3 |
| 20260502121708 | 65 | 214 | 6.0 | 13.0 | 0.00 | 0.00 | 0.00 | 98 | 912.4 |
| 20260502121208 | 65 | 203 | 7.0 | 10.0 | 0.00 | 0.00 | 0.00 | 98 | 912.3 |
| 20260502121109 | 65 | 210 | 6.0 | 10.0 | 0.00 | 0.00 | 0.00 | 98 | 912.2 |
| 20260502120709 | 65 | 213 | 4.0 | 9.0 | 0.00 | 0.00 | 0.00 | 98 | 912.2 |
| 20260502120511 | 65 | 210 | 7.0 | 9.0 | 0.00 | 0.00 | 0.00 | 98 | 912.1 |
| 20260502120208 | 65 | 219 | 5.0 | 7.0 | 0.00 | 0.00 | 0.00 | 98 | 912.2 |
| 20260502115909 | 65 | 204 | 0.0 | 4.0 | 0.00 | 0.00 | 0.00 | 98 | 912.2 |
| 20260502115309 | 65 | 193 | 0.0 | 5.0 | 0.00 | 0.00 | 0.00 | 98 | 912.1 |
| 20260502115208 | 65 | 142 | 4.0 | 10.0 | 0.00 | 0.00 | 0.00 | 98 | 912.2 |
| 20260502114710 | 65 | 217 | 3.0 | 10.0 | 0.00 | 0.00 | 0.00 | 98 | 912.2 |
| 20260502114708 | 65 | 219 | 3.0 | 10.0 | 0.00 | 0.00 | 0.00 | 98 | 912.2 |
| 20260502114208 | 65 | 219 | 7.0 | 9.0 | 0.00 | 0.00 | 0.00 | 98 | 912.1 |
| 20260502114109 | 65 | 195 | 6.0 | 9.0 | 0.00 | 0.00 | 0.00 | 98 | 912.2 |
| 20260502113708 | 65 | 222 | 4.0 | 9.0 | 0.00 | 0.00 | 0.00 | 98 | 912.1 |
| 20260502113509 | 65 | 229 | 6.0 | 9.0 | 0.00 | 0.00 | 0.00 | 98 | 912.1 |
| 20260502113208 | 65 | 189 | 4.0 | 9.0 | 0.00 | 0.00 | 0.00 | 98 | 912.0 |
| 20260502112909 | 65 | 243 | 5.0 | 9.0 | 0.00 | 0.00 | 0.00 | 98 | 911.9 |
| 20260502112708 | 65 | 205 | 4.0 | 8.0 | 0.00 | 0.00 | 0.00 | 98 | 912.0 |
| 20260502112309 | 65 | 214 | 1.0 | 7.0 | 0.00 | 0.00 | 0.00 | 98 | 911.8 |
| 20260502112208 | 65 | 212 | 0.0 | 7.0 | 0.00 | 0.00 | 0.00 | 98 | 911.8 |
| 20260502111710 | 65 | 232 | 5.0 | 9.0 | 0.00 | 0.00 | 0.00 | 98 | 911.9 |
| 20260502111708 | 65 | 230 | 5.0 | 9.0 | 0.00 | 0.00 | 0.00 | 98 | 911.9 |
| 20260502111208 | 66 | 177 | 7.0 | 12.0 | 0.00 | 0.00 | 0.00 | 98 | 911.9 |
| 20260502111109 | 65 | 197 | 3.0 | 12.0 | 0.00 | 0.00 | 0.00 | 98 | 911.9 |
| 20260502110708 | 65 | 226 | 7.0 | 9.0 | 0.00 | 0.00 | 0.00 | 98 | 911.9 |
| 20260502110509 | 66 | 233 | 1.0 | 8.0 | 0.00 | 0.00 | 0.00 | 98 | 911.9 |
| 20260502110208 | 66 | 213 | 7.0 | 11.0 | 0.00 | 0.00 | 0.00 | 98 | 911.9 |
| 20260502105909 | 66 | 236 | 7.0 | 11.0 | 0.00 | 0.00 | 0.00 | 98 | 911.8 |
| 20260502105708 | 66 | 217 | 7.0 | 11.0 | 0.00 | 0.00 | 0.00 | 98 | 911.8 |
| 20260502105309 | 66 | 233 | 1.0 | 9.0 | 0.00 | 0.00 | 0.00 | 98 | 911.9 |
| 20260502105207 | 66 | 220 | 5.0 | 9.0 | 0.00 | 0.00 | 0.00 | 98 | 912.0 |
| 20260502104709 | 66 | 213 | 4.0 | 7.0 | 0.00 | 0.00 | 0.00 | 98 | 912.0 |
| 20260502104707 | 66 | 212 | 4.0 | 7.0 | 0.00 | 0.00 | 0.00 | 98 | 912.0 |
| 20260502104207 | 66 | 239 | 0.0 | 5.0 | 0.00 | 0.00 | 0.00 | 98 | 912.0 |
| 20260502103707 | 66 | 231 | 1.0 | 7.0 | 0.00 | 0.00 | 0.00 | 98 | 911.9 |
| 20260502103509 | 66 | 178 | 6.0 | 13.0 | 0.00 | 0.00 | 0.00 | 98 | 912.0 |
| 20260502103207 | 66 | 211 | 1.0 | 13.0 | 0.00 | 0.00 | 0.00 | 98 | 911.9 |
| 20260502102909 | 66 | 215 | 8.0 | 12.0 | 0.00 | 0.00 | 0.00 | 98 | 911.7 |
| 20260502102707 | 66 | 277 | 6.0 | 10.0 | 0.00 | 0.00 | 0.00 | 99 | 911.7 |
| 20260502102309 | 65 | 210 | 4.0 | 10.0 | 0.00 | 0.00 | 0.00 | 99 | 911.8 |
| 20260502102207 | 65 | 228 | 0.0 | 9.0 | 0.00 | 0.00 | 0.00 | 99 | 911.8 |
| 20260502091207 | 66 | 248 | 2.0 | 10.0 | 0.00 | 0.00 | 0.00 | 99 | 911.6 |
| 20260502091108 | 66 | 221 | 0.0 | 0.0 | 0.00 | 0.00 | 0.00 | 99 | 911.6 |
| 20260502090508 | 66 | 226 | 0.0 | 5.0 | 0.00 | 0.00 | 0.00 | 99 | 911.6 |
| 20260502071206 | 66 | 192 | 7.0 | 10.0 | 0.00 | 0.00 | 0.00 | 98 | 912.6 |
| 20260502071107 | 66 | 197 | 7.0 | 10.0 | 0.00 | 0.00 | 0.00 | 98 | 912.5 |
| 20260502070706 | 66 | 179 | 1.0 | 8.0 | 0.00 | 0.00 | 0.00 | 98 | 912.7 |
| 20260502070507 | 66 | 229 | 6.0 | 10.0 | 0.00 | 0.00 | 0.00 | 98 | 912.6 |
| 20260502065907 | 66 | 191 | 5.0 | 9.0 | 0.00 | 0.00 | 0.00 | 98 | 912.7 |
| 20260502065206 | 66 | 213 | 1.0 | 10.0 | 0.00 | 0.00 | 0.00 | 98 | 912.8 |
| 20260502064707 | 66 | 196 | 6.0 | 8.0 | 0.00 | 0.00 | 0.00 | 98 | 912.8 |
| 20260502064107 | 66 | 200 | 7.0 | 12.0 | 0.00 | 0.00 | 0.00 | 98 | 912.8 |
| 20260502063706 | 66 | 223 | 8.0 | 11.0 | 0.00 | 0.00 | 0.00 | 98 | 913.0 |
| 20260502063507 | 66 | 187 | 3.0 | 11.0 | 0.00 | 0.00 | 0.00 | 98 | 913.0 |
| 20260502063206 | 66 | 255 | 7.0 | 11.0 | 0.00 | 0.00 | 0.00 | 98 | 913.0 |
| 20260502062907 | 66 | 198 | 7.0 | 11.0 | 0.00 | 0.00 | 0.00 | 98 | 913.0 |
| 20260502062707 | 66 | 221 | 7.0 | 11.0 | 0.00 | 0.00 | 0.00 | 98 | 913.2 |
| 20260502062307 | 66 | 179 | 6.0 | 9.0 | 0.00 | 0.00 | 0.00 | 98 | 913.3 |
| 20260502062205 | 66 | 215 | 3.0 | 8.0 | 0.00 | 0.00 | 0.00 | 98 | 913.2 |
| 20260502061707 | 66 | 239 | 0.0 | 5.0 | 0.00 | 0.00 | 0.00 | 98 | 913.3 |
| 20260502061705 | 66 | 245 | 0.0 | 5.0 | 0.00 | 0.00 | 0.00 | 98 | 913.3 |
| 20260502060705 | 66 | 135 | 4.0 | 8.0 | 0.00 | 0.00 | 0.00 | 98 | 913.3 |
| 20260502060506 | 66 | 238 | 3.0 | 8.0 | 0.00 | 0.00 | 0.00 | 98 | 913.4 |
| 20260502055906 | 66 | 226 | 0.0 | 5.0 | 0.00 | 0.00 | 0.00 | 98 | 913.4 |
| 20260502055705 | 66 | 142 | 0.0 | 7.0 | 0.00 | 0.00 | 0.00 | 98 | 913.5 |
| 20260502055307 | 66 | 150 | 0.0 | 7.0 | 0.00 | 0.00 | 0.00 | 98 | 913.6 |
| 20260502055205 | 66 | 193 | 6.0 | 10.0 | 0.00 | 0.00 | 0.00 | 98 | 913.5 |
| 20260502054707 | 66 | 174 | 0.0 | 4.0 | 0.00 | 0.00 | 0.00 | 98 | 913.6 |
| 20260502054705 | 66 | 199 | 0.0 | 4.0 | 0.00 | 0.00 | 0.00 | 98 | 913.6 |
| 20260502054205 | 66 | 145 | 5.0 | 8.0 | 0.00 | 0.00 | 0.00 | 98 | 913.7 |
| 20260502054107 | 65 | 238 | 2.0 | 7.0 | 0.00 | 0.00 | 0.00 | 98 | 913.7 |
| 20260502053705 | 66 | 197 | 7.0 | 10.0 | 0.00 | 0.00 | 0.00 | 98 | 913.9 |
| 20260502053506 | 66 | 156 | 6.0 | 9.0 | 0.00 | 0.00 | 0.00 | 98 | 913.9 |
| 20260502053205 | 66 | 200 | 0.0 | 8.0 | 0.00 | 0.00 | 0.00 | 98 | 913.9 |
| 20260502052906 | 66 | 219 | 5.0 | 11.0 | 0.00 | 0.00 | 0.00 | 98 | 914.0 |
| 20260502052306 | 66 | 219 | 5.0 | 8.0 | 0.00 | 0.00 | 0.00 | 98 | 914.1 |
| 20260502051707 | 66 | 199 | 9.0 | 15.0 | 0.00 | 0.00 | 0.00 | 98 | 914.1 |
| 20260502051705 | 66 | 198 | 9.0 | 15.0 | 0.00 | 0.00 | 0.00 | 98 | 914.1 |
| 20260502051205 | 66 | 172 | 3.0 | 12.0 | 0.00 | 0.00 | 0.00 | 98 | 914.2 |
| 20260502051106 | 66 | 218 | 5.0 | 7.0 | 0.00 | 0.00 | 0.00 | 98 | 914.3 |
| 20260502050705 | 66 | 179 | 1.0 | 8.0 | 0.00 | 0.00 | 0.00 | 98 | 914.2 |
| 20260502050506 | 66 | 207 | 4.0 | 8.0 | 0.00 | 0.00 | 0.00 | 98 | 914.2 |
| 20260502050205 | 66 | 174 | 7.0 | 12.0 | 0.00 | 0.00 | 0.00 | 98 | 914.3 |
| 20260502045906 | 65 | 240 | 1.0 | 8.0 | 0.00 | 0.00 | 0.00 | 99 | 914.3 |
| 20260502044706 | 65 | 213 | 6.0 | 14.0 | 0.00 | 0.00 | 0.00 | 98 | 914.6 |
| 20260502044205 | 65 | 271 | 2.0 | 10.0 | 0.00 | 0.00 | 0.00 | 98 | 914.6 |
| 20260502043705 | 65 | 207 | 6.0 | 10.0 | 0.00 | 0.00 | 0.00 | 98 | 914.6 |
| 20260502043506 | 65 | 199 | 4.0 | 10.0 | 0.00 | 0.00 | 0.00 | 98 | 914.6 |
| 20260502043205 | 65 | 195 | 0.0 | 0.0 | 0.00 | 0.00 | 0.00 | 98 | 914.6 |
| 20260502042906 | 65 | 145 | 7.0 | 12.0 | 0.00 | 0.00 | 0.00 | 98 | 914.6 |
| 20260502042704 | 65 | 193 | 0.0 | 9.0 | 0.00 | 0.00 | 0.00 | 98 | 914.6 |
| 20260502042307 | 65 | 160 | 0.0 | 0.0 | 0.00 | 0.00 | 0.00 | 98 | 914.7 |
| 20260502042204 | 66 | 130 | 6.0 | 10.0 | 0.00 | 0.00 | 0.00 | 98 | 914.6 |
| 20260502041706 | 65 | 211 | 1.0 | 9.0 | 0.00 | 0.00 | 0.00 | 99 | 914.7 |
| 20260502040704 | 65 | 198 | 0.0 | 7.0 | 0.00 | 0.00 | 0.00 | 98 | 914.8 |
| 20260502040506 | 65 | 162 | 0.0 | 7.0 | 0.00 | 0.00 | 0.00 | 99 | 914.8 |
| 20260502035906 | 65 | 135 | 1.0 | 11.0 | 0.00 | 0.00 | 0.00 | 99 | 914.8 |
| 20260502035306 | 65 | 155 | 4.0 | 11.0 | 0.00 | 0.00 | 0.00 | 98 | 914.8 |
| 20260502033704 | 65 | 253 | 7.0 | 10.0 | 0.00 | 0.00 | 0.00 | 98 | 914.9 |
| 20260502033507 | 65 | 154 | 0.0 | 0.0 | 0.00 | 0.00 | 0.00 | 98 | 914.9 |
| 20260502033204 | 65 | 203 | 1.0 | 10.0 | 0.00 | 0.00 | 0.00 | 99 | 915.0 |
| 20260502032704 | 65 | 180 | 0.0 | 8.0 | 0.00 | 0.00 | 0.00 | 98 | 915.0 |
| 20260502032306 | 65 | 113 | 6.0 | 11.0 | 0.00 | 0.00 | 0.00 | 98 | 915.0 |
| 20260502032204 | 65 | 190 | 7.0 | 11.0 | 0.00 | 0.00 | 0.00 | 98 | 915.1 |
| 20260502031706 | 65 | 221 | 6.0 | 10.0 | 0.00 | 0.00 | 0.00 | 98 | 915.0 |
| 20260502031704 | 65 | 161 | 6.0 | 10.0 | 0.00 | 0.00 | 0.00 | 98 | 915.1 |
| 20260502031204 | 65 | 210 | 6.0 | 10.0 | 0.00 | 0.00 | 0.00 | 98 | 915.1 |
| 20260502031105 | 65 | 201 | 6.0 | 10.0 | 0.00 | 0.00 | 0.00 | 98 | 915.1 |
| 20260502030705 | 65 | 206 | 1.0 | 10.0 | 0.00 | 0.00 | 0.00 | 98 | 915.1 |
| 20260502030505 | 65 | 115 | 7.0 | 10.0 | 0.00 | 0.00 | 0.00 | 98 | 915.2 |
| 20260502030204 | 65 | 150 | 7.0 | 11.0 | 0.00 | 0.00 | 0.00 | 98 | 915.1 |
| 20260502025905 | 65 | 188 | 7.0 | 11.0 | 0.00 | 0.00 | 0.00 | 98 | 915.1 |
| 20260502025704 | 65 | 154 | 7.0 | 11.0 | 0.00 | 0.00 | 0.00 | 98 | 915.1 |